User: anonymous   Login
Location: Unspecified
(35.6961°N, 0.0000°E)
Time: 21:28:35
(UTC+00:00)
Language:

PicSat - Orbit

View from above orbital plane
View from above orbital plane
View from above satellite
View from above satellite

Ground track
Ground track

The orbit data is extracted from the following two-line orbital elements,

1 43131U 18004W   19171.18784518  .00001013  00000-0  44682-4 0  9999
2 43131  97.4889 239.2305 0007909 243.1383 116.9046 15.24107908 79743
Epoch (UTC): 20 June 2019 04:30:29
Eccentricity: 0.0007909
inclination: 97.4889°
perigee height: 488 km
apogee height: 499 km
right ascension of ascending node: 239.2305°
argument of perigee: 243.1383°
revolutions per day: 15.24107908
mean anomaly at epoch: 116.9046°
orbit number at epoch: 7974

The dashed part of the orbit path shows where the satellite is in the earth's shadow,  

DLR